TimeCST,TemperatureF,Dew PointF,Humidity,Sea Level PressureIn,VisibilityMPH,Wind Direction,Wind SpeedMPH,Gust SpeedMPH,PrecipitationIn,Events,Conditions,WindDirDegrees,DateUTC
12:52 AM,36.0,33.1,89,30.06,10.0,NW,15.0,-,N/A,,Overcast,320,2013-02-08 06:52:00
1:35 AM,35.6,33.8,93,30.06,8.0,NW,11.5,21.9,N/A,,Overcast,320,2013-02-08 07:35:00
1:52 AM,35.1,33.1,92,30.08,4.0,NW,12.7,23.0,N/A,,Overcast,320,2013-02-08 07:52:00
2:43 AM,33.8,30.2,87,30.09,6.0,NNW,12.7,-,N/A,,Overcast,330,2013-02-08 08:43:00
2:52 AM,34.0,30.9,89,30.10,6.0,NNW,16.1,24.2,N/A,,Overcast,330,2013-02-08 08:52:00
3:03 AM,33.8,30.2,87,30.09,5.0,NNW,13.8,21.9,N/A,,Overcast,330,2013-02-08 09:03:00
3:25 AM,33.8,30.2,87,30.11,7.0,NNW,16.1,28.8,N/A,,Overcast,340,2013-02-08 09:25:00
3:52 AM,33.1,28.9,85,30.14,10.0,North,11.5,-,N/A,,Overcast,350,2013-02-08 09:52:00
4:02 AM,33.8,28.4,81,30.12,10.0,NNW,11.5,-,N/A,,Overcast,340,2013-02-08 10:02:00
4:32 AM,33.8,28.4,81,30.14,10.0,NNW,11.5,-,N/A,,Overcast,330,2013-02-08 10:32:00
4:52 AM,33.1,28.9,85,30.17,10.0,NNW,11.5,-,N/A,,Overcast,340,2013-02-08 10:52:00
5:52 AM,33.1,28.0,82,30.20,10.0,NNW,10.4,19.6,N/A,,Overcast,340,2013-02-08 11:52:00
6:52 AM,30.0,26.1,85,30.25,10.0,North,11.5,-,N/A,,Overcast,360,2013-02-08 12:52:00
7:25 AM,30.2,26.6,86,30.25,10.0,North,11.5,-,N/A,,Overcast,360,2013-02-08 13:25:00
7:52 AM,30.9,25.0,79,30.28,10.0,North,15.0,21.9,N/A,,Overcast,360,2013-02-08 13:52:00
8:26 AM,30.2,24.8,80,30.28,10.0,North,17.3,24.2,N/A,,Overcast,350,2013-02-08 14:26:00
8:52 AM,30.0,24.1,79,30.31,10.0,North,12.7,-,N/A,,Overcast,350,2013-02-08 14:52:00
9:27 AM,30.2,23.0,75,30.31,10.0,North,17.3,20.7,N/A,,Overcast,350,2013-02-08 15:27:00
9:52 AM,30.0,24.1,79,30.34,10.0,North,13.8,-,N/A,,Overcast,360,2013-02-08 15:52:00
10:52 AM,30.9,23.0,72,30.35,10.0,North,12.7,-,N/A,,Overcast,360,2013-02-08 16:52:00
11:52 AM,30.0,24.1,79,30.36,10.0,North,11.5,-,N/A,,Overcast,350,2013-02-08 17:52:00
12:52 PM,30.0,23.0,75,30.37,10.0,North,9.2,-,N/A,,Overcast,10,2013-02-08 18:52:00
1:52 PM,30.0,23.0,75,30.36,10.0,NNE,9.2,-,N/A,,Overcast,20,2013-02-08 19:52:00
2:15 PM,30.2,23.0,75,30.35,10.0,Variable,6.9,-,N/A,,Overcast,0,2013-02-08 20:15:00
2:52 PM,30.0,23.0,75,30.37,10.0,North,9.2,-,N/A,,Overcast,360,2013-02-08 20:52:00
3:52 PM,28.9,21.9,75,30.39,10.0,North,5.8,-,N/A,,Overcast,10,2013-02-08 21:52:00
4:52 PM,28.9,21.9,75,30.40,10.0,NNE,6.9,-,N/A,,Overcast,30,2013-02-08 22:52:00
5:52 PM,28.9,21.9,75,30.40,10.0,NNE,4.6,-,N/A,,Overcast,30,2013-02-08 23:52:00
6:24 PM,28.4,21.2,74,30.38,10.0,NE,4.6,-,N/A,,Overcast,40,2013-02-09 00:24:00
6:52 PM,28.9,21.9,75,30.39,10.0,NNE,3.5,-,N/A,,Overcast,30,2013-02-09 00:52:00
7:52 PM,28.0,21.0,75,30.40,10.0,Calm,Calm,-,N/A,,Overcast,0,2013-02-09 01:52:00
8:52 PM,28.0,21.9,78,30.42,10.0,SE,4.6,-,N/A,,Overcast,140,2013-02-09 02:52:00
9:52 PM,28.0,21.9,78,30.40,10.0,ESE,5.8,-,N/A,,Overcast,110,2013-02-09 03:52:00
10:52 PM,28.9,21.9,75,30.40,10.0,ESE,4.6,-,N/A,,Overcast,120,2013-02-09 04:52:00
11:52 PM,28.9,23.0,78,30.40,10.0,ESE,4.6,-,N/A,,Overcast,120,2013-02-09 05:52:00